DECAYED

OBJECT A, 61179 (Decayed)

Orbit data source: Space-Track

You're viewing an Uncataloged Satellite

Recently launched and/or uncataloged satellites may have evolving metadata. Metadata may include but not limited to: Owner, Maufacturer, Bus, Motor, and Mission.

OBJECT A, 61179 was a satellite owned by MO RF (CIS) in LEO that was launched on Tue, 17 Sep 2024 UTC via an ANGARA-1.2 launch vehicle from the Plesetsk Missile And Space Complex (PKMTR). Unknown objects in Earth's orbit typically refer to objects detected orbiting the Earth but have not yet been identified or cataloged. These objects could be anything from previously untracked satellites, spent rocket stages, debris from satellite collisions, or even natural meteoroids temporarily captured by Earth's gravity. This object's orbit decayed before it could be identified.

Not visible in the next 10 days
Identifier
61179, 2024-166A
Orbit
Decayed
Country
Flag of CISCIS
Related business
Manufacturer
VNIIEMI?
Mission
Decayed Defense Imaging
Bus & Motor
OO-MKA, Unknown motor
Mass
520 kg wet, ~500 kg dry
Launch date (UTC)
2024-09-17 (2 years ago)
Launch vehicle
ANGARA-1.2
Launch site
Plesetsk Missile And Space Complex (PKMTR)
Object type
Unknown
Shape & HBR
Cyl + 2 Pan, 1.5 m
Radar Cross Section
3.727 m², Large (>1 m²)

Expand to show TLE details & history
Last TLE update: 1 year ago

TLE from 1 year ago
0 OBJECT A
1 61179U 24166A   25057.68894242  .14454498  20991-5  60693-3 0  9997
2 61179  96.7481 319.5250 0004666 282.4652 106.6779 16.43444450 25881
Epoch: 2025-02-26T16:32Z
TLE epoch observation values (Epoch: 2025-02-26T16:32:04.625Z)
Latitude
29.02473°
Longitude
-89.01189°
Altitude
161.414 km
Speed
7.812 km/s
True Right ascension
21h 03m 07s
True Declination
28° 51' 57"
Sunlit
Object was in daylight at epoch
Visualization orbit readout
Latitude
Unknown
Longitude
Unknown
Altitude
Unknown
Speed
Unknown
Apparent Right ascension
Unknown
Apparent Declination
Unknown
Sunlit
N/A
Visualization observer readout
Local Sidereal Time
07:24:27
Azimuth
Unknown
Elevation
Unknown
Doppler factor
Unknown
Orbital elements
Apogee altitude
156.478 km
Perigee altitude
150.383 km
Semi-major axis
6,531.568 km
Eccentricity
0.00047
Inclination
96.7481°
RAAN
319.525°
Arg. of periapsis
282.4652°
True anomaly
106.72911°
Mean anomaly
106.6779°
Eccentric anomaly
106.70351°
Mean motion
4.11166 °/min
Orbital period
87.56 mins
BSTAR
0.00060693
Loading maneuver chart data...
Computing Atmospheric mass density...
Loading historical data...
Loading historical data...
Loading historical data...
Loading historical data...
Loading historical data...
Loading historical data...
Loading historical data...
Other satellites on launch #166 in the year 2024 (2024-09-17 UTC)

Documentation

Showing up to 5 results
|